SBI250 UWKD-UWPS

Flight info

Callsign SBI250
Flight time 0h 44m
Altitude 28000
Route APTAR1G APTAR DCT OTPIS P165 DOGIT T766 UGLAD UGLAD2K
Aircraft A319/M-SDE3FGHIRWY/LB1

Departure

Time 2026-04-26 09:55
Airport Kazan International Airport (UWKD)

Arrival

Time 2026-04-26 10:40
Airport Saransk International Airport (UWPS)
Time Latitude Longitude Altitude Speed Heading
2026-04-26 09:18 55.60832 49.29621 409 ft 0 kts 31°
2026-04-26 09:21 55.60832 49.29620 409 ft 0 kts 31°
2026-04-26 09:33 55.60831 49.29620 421 ft 0 kts 31°
2026-04-26 09:44 55.60818 49.29605 421 ft 3 kts 31°
2026-04-26 09:45 55.60802 49.29588 412 ft 3 kts 31°
2026-04-26 09:45 55.60788 49.29581 417 ft 0 kts 318°
2026-04-26 09:45 55.60780 49.29593 416 ft 2 kts 358°
2026-04-26 09:45 55.60765 49.29582 410 ft 2 kts 30°
2026-04-26 09:46 55.60749 49.29564 418 ft 3 kts 36°
2026-04-26 09:46 55.60737 49.29549 416 ft 0 kts 36°
2026-04-26 09:48 55.60738 49.29549 416 ft 1 kts 34°
2026-04-26 09:48 55.60755 49.29562 418 ft 5 kts 18°
2026-04-26 09:49 55.60776 49.29553 418 ft 6 kts 335°
2026-04-26 09:49 55.60808 49.29483 416 ft 8 kts 293°
2026-04-26 09:49 55.60779 49.29386 419 ft 12 kts 216°
2026-04-26 09:49 55.60699 49.29287 415 ft 16 kts 214°
2026-04-26 09:50 55.60598 49.29149 412 ft 20 kts 232°
2026-04-26 09:50 55.60584 49.28879 411 ft 25 kts 274°
2026-04-26 09:50 55.60620 49.28542 406 ft 31 kts 299°
2026-04-26 09:50 55.60747 49.28211 405 ft 32 kts 304°
2026-04-26 09:51 55.60879 49.27871 402 ft 36 kts 304°
2026-04-26 09:51 55.61027 49.27489 395 ft 39 kts 304°
2026-04-26 09:51 55.61168 49.27130 391 ft 34 kts 304°
2026-04-26 09:51 55.61308 49.26770 390 ft 39 kts 304°
2026-04-26 09:52 55.61470 49.26353 383 ft 44 kts 304°
2026-04-26 09:52 55.61744 49.25646 373 ft 31 kts 305°
2026-04-26 09:52 55.61851 49.25342 367 ft 22 kts 278°
2026-04-26 09:53 55.61803 49.25232 368 ft 8 kts 214°
2026-04-26 09:53 55.61752 49.25171 366 ft 9 kts 214°
2026-04-26 09:53 55.61696 49.25150 369 ft 7 kts 159°
2026-04-26 09:53 55.61679 49.25172 367 ft 0 kts 136°
2026-04-26 09:54 55.61678 49.25173 367 ft 0 kts 136°
2026-04-26 09:54 55.61662 49.25209 370 ft 10 kts 124°
2026-04-26 09:55 55.61586 49.25404 371 ft 31 kts 124°
2026-04-26 09:55 55.61348 49.26013 379 ft 102 kts 124°
2026-04-26 09:55 55.60808 49.27397 541 ft 154 kts 126°
2026-04-26 09:55 55.60192 49.28967 1271 ft 164 kts 128°
2026-04-26 09:56 55.59500 49.30715 1949 ft 181 kts 130°
2026-04-26 09:56 55.58782 49.32562 2712 ft 187 kts 130°
2026-04-26 09:56 55.57998 49.34563 3142 ft 211 kts 129°
2026-04-26 09:56 55.57123 49.36791 3729 ft 227 kts 130°
2026-04-26 09:57 55.56214 49.39125 4610 ft 234 kts 129°
2026-04-26 09:57 55.55263 49.41497 5496 ft 238 kts 135°
2026-04-26 09:57 55.53859 49.43101 6003 ft 249 kts 172°
2026-04-26 09:57 55.52153 49.42793 6663 ft 252 kts 209°
2026-04-26 09:58 55.50867 49.40719 7485 ft 257 kts 235°
2026-04-26 09:58 55.50187 49.37785 8388 ft 262 kts 258°
2026-04-26 09:58 55.49963 49.34588 9433 ft 264 kts 262°
2026-04-26 09:58 55.49771 49.31326 10200 ft 275 kts 262°
2026-04-26 09:59 55.49572 49.27829 10556 ft 298 kts 262°
2026-04-26 09:59 55.49434 49.25376 10966 ft 306 kts 263°
2026-04-26 09:59 55.49155 49.20347 12066 ft 312 kts 263°
2026-04-26 09:59 55.48948 49.16578 12919 ft 315 kts 263°
2026-04-26 10:00 55.48729 49.12691 13770 ft 318 kts 264°
2026-04-26 10:00 55.48506 49.08797 14532 ft 321 kts 264°
2026-04-26 10:00 55.48281 49.04866 15276 ft 323 kts 264°
2026-04-26 10:00 55.48053 49.00905 16025 ft 326 kts 264°
2026-04-26 10:01 55.47821 48.96926 16779 ft 328 kts 264°
2026-04-26 10:01 55.47584 48.92912 17521 ft 331 kts 264°
2026-04-26 10:01 55.47426 48.90241 18010 ft 333 kts 264°
2026-04-26 10:01 55.47184 48.86158 18649 ft 335 kts 264°
2026-04-26 10:02 55.46942 48.82055 19296 ft 338 kts 264°
2026-04-26 10:02 55.46699 48.77929 19929 ft 340 kts 264°
2026-04-26 10:02 55.46452 48.73768 20561 ft 342 kts 264°
2026-04-26 10:02 55.46201 48.69593 21207 ft 344 kts 264°
2026-04-26 10:03 55.45941 48.65382 21841 ft 347 kts 264°
2026-04-26 10:03 55.45678 48.61143 22475 ft 349 kts 264°
2026-04-26 10:03 55.45340 48.56886 23100 ft 352 kts 258°
2026-04-26 10:03 55.44567 48.52782 23618 ft 356 kts 248°
2026-04-26 10:04 55.43323 48.48976 24106 ft 362 kts 238°
2026-04-26 10:04 55.41850 48.45345 24549 ft 364 kts 238°
2026-04-26 10:04 55.40380 48.41720 24914 ft 365 kts 238°
2026-04-26 10:04 55.38800 48.38297 25270 ft 371 kts 227°
2026-04-26 10:05 55.36604 48.35633 25557 ft 381 kts 217°
2026-04-26 10:05 55.34413 48.33056 25521 ft 376 kts 220°
2026-04-26 10:05 55.32296 48.30353 25759 ft 376 kts 223°
2026-04-26 10:05 55.30534 48.27168 26001 ft 367 kts 239°
2026-04-26 10:06 55.29526 48.23115 26269 ft 364 kts 255°
2026-04-26 10:06 55.28799 48.18829 26523 ft 365 kts 255°
2026-04-26 10:06 55.28076 48.14558 26830 ft 366 kts 255°
2026-04-26 10:06 55.27346 48.10250 27226 ft 369 kts 255°
2026-04-26 10:07 55.26547 48.05961 27630 ft 372 kts 249°
2026-04-26 10:07 55.25474 48.01805 27935 ft 376 kts 249°
2026-04-26 10:07 55.24515 47.97550 27725 ft 375 kts 251°
2026-04-26 10:07 55.23450 47.93348 28115 ft 380 kts 241°
2026-04-26 10:08 55.21701 47.89864 28935 ft 380 kts 226°
2026-04-26 10:08 55.19729 47.86850 29534 ft 374 kts 226°
2026-04-26 10:08 55.17780 47.83883 29716 ft 370 kts 226°
2026-04-26 10:08 55.15839 47.80936 29772 ft 367 kts 226°
2026-04-26 10:09 55.12475 47.74382 29771 ft 360 kts 237°
2026-04-26 10:09 55.09641 47.67188 29771 ft 359 kts 239°
2026-04-26 10:10 55.06834 47.59999 29774 ft 359 kts 238°
2026-04-26 10:10 55.03922 47.52913 29765 ft 359 kts 237°
2026-04-26 10:11 55.00956 47.45873 29765 ft 359 kts 237°
2026-04-26 10:11 54.98009 47.38908 29762 ft 359 kts 237°
2026-04-26 10:12 54.95057 47.31914 29754 ft 359 kts 237°
2026-04-26 10:12 54.92105 47.24919 29748 ft 359 kts 237°
2026-04-26 10:13 54.89150 47.17927 29406 ft 356 kts 237°
2026-04-26 10:13 54.87692 47.14500 28987 ft 350 kts 237°
2026-04-26 10:13 54.86256 47.11138 28570 ft 345 kts 237°
2026-04-26 10:14 54.84652 47.08054 28158 ft 345 kts 226°
2026-04-26 10:14 54.82680 47.05646 27702 ft 349 kts 214°
2026-04-26 10:14 54.80429 47.04061 27218 ft 357 kts 201°
2026-04-26 10:14 54.77952 47.03379 26712 ft 365 kts 191°
2026-04-26 10:15 54.75423 47.03072 26218 ft 364 kts 191°
2026-04-26 10:15 54.72905 47.02715 25728 ft 360 kts 195°
2026-04-26 10:15 54.70529 47.01612 25248 ft 348 kts 209°
2026-04-26 10:15 54.68466 46.99588 24786 ft 338 kts 222°
2026-04-26 10:16 54.66795 46.96829 24383 ft 328 kts 234°
2026-04-26 10:16 54.65569 46.93554 23960 ft 322 kts 246°
2026-04-26 10:16 54.64709 46.89998 23544 ft 319 kts 249°
2026-04-26 10:16 54.63877 46.86455 23082 ft 317 kts 249°
2026-04-26 10:17 54.63047 46.82947 22652 ft 314 kts 249°
2026-04-26 10:17 54.62228 46.79490 22235 ft 310 kts 249°
2026-04-26 10:17 54.61415 46.76064 21814 ft 306 kts 248°
2026-04-26 10:17 54.60612 46.72689 21398 ft 302 kts 248°
2026-04-26 10:18 54.59818 46.69359 21001 ft 299 kts 247°
2026-04-26 10:18 54.58872 46.66159 20585 ft 297 kts 242°
2026-04-26 10:18 54.57897 46.63034 20174 ft 295 kts 242°
2026-04-26 10:18 54.56942 46.59965 19775 ft 294 kts 242°
2026-04-26 10:19 54.55964 46.56821 19378 ft 303 kts 242°
2026-04-26 10:19 54.54958 46.53592 18995 ft 307 kts 242°
2026-04-26 10:19 54.53944 46.50345 18598 ft 308 kts 242°
2026-04-26 10:19 54.52932 46.47104 18206 ft 307 kts 242°
2026-04-26 10:20 54.51919 46.43867 17799 ft 306 kts 242°
2026-04-26 10:20 54.51252 46.41735 17506 ft 305 kts 242°
2026-04-26 10:20 54.49909 46.37451 16922 ft 303 kts 242°
2026-04-26 10:20 54.48909 46.34264 16502 ft 301 kts 242°
2026-04-26 10:21 54.47912 46.31096 16079 ft 300 kts 242°
2026-04-26 10:21 54.46921 46.27959 15660 ft 297 kts 242°
2026-04-26 10:21 54.45933 46.24833 15078 ft 300 kts 242°
2026-04-26 10:21 54.44945 46.21703 14739 ft 296 kts 242°
2026-04-26 10:22 54.43969 46.18622 14386 ft 293 kts 242°
2026-04-26 10:22 54.42995 46.15550 14034 ft 291 kts 242°
2026-04-26 10:22 54.42031 46.12508 13656 ft 290 kts 242°
2026-04-26 10:22 54.41068 46.09476 13228 ft 288 kts 242°
2026-04-26 10:23 54.40122 46.06509 12847 ft 286 kts 242°
2026-04-26 10:23 54.39168 46.03522 12455 ft 284 kts 242°
2026-04-26 10:23 54.38225 46.00564 12073 ft 281 kts 242°
2026-04-26 10:23 54.37287 45.97618 11548 ft 283 kts 242°
2026-04-26 10:24 54.36346 45.94670 11151 ft 281 kts 242°
2026-04-26 10:24 54.35407 45.91734 10782 ft 278 kts 242°
2026-04-26 10:24 54.34477 45.88836 10414 ft 276 kts 242°
2026-04-26 10:24 54.33554 45.85961 10058 ft 274 kts 242°
2026-04-26 10:25 54.32643 45.83135 9832 ft 266 kts 241°
2026-04-26 10:25 54.31758 45.80394 9611 ft 259 kts 241°
2026-04-26 10:25 54.30885 45.77692 9268 ft 261 kts 241°
2026-04-26 10:25 54.30009 45.74975 8912 ft 258 kts 241°
2026-04-26 10:26 54.29151 45.72288 8490 ft 257 kts 241°
2026-04-26 10:26 54.28304 45.69601 8078 ft 256 kts 242°
2026-04-26 10:26 54.27469 45.66947 7835 ft 249 kts 242°
2026-04-26 10:26 54.26676 45.64434 7694 ft 237 kts 242°
2026-04-26 10:27 54.25908 45.62005 7568 ft 227 kts 242°
2026-04-26 10:27 54.25175 45.59686 7446 ft 216 kts 242°
2026-04-26 10:27 54.24478 45.57478 7277 ft 207 kts 242°
2026-04-26 10:27 54.23916 45.55162 6707 ft 218 kts 261°
2026-04-26 10:28 54.24191 45.52552 6106 ft 236 kts 295°
2026-04-26 10:28 54.25452 45.50592 5427 ft 263 kts 332°
2026-04-26 10:28 54.27292 45.50343 5163 ft 272 kts 11°
2026-04-26 10:28 54.28861 45.51988 5136 ft 262 kts 50°
2026-04-26 10:29 54.29761 45.54580 5140 ft 246 kts 66°
2026-04-26 10:29 54.30434 45.57171 5148 ft 232 kts 69°
2026-04-26 10:29 54.31059 45.59643 5155 ft 222 kts 68°
2026-04-26 10:29 54.31626 45.62081 5137 ft 219 kts 81°
2026-04-26 10:30 54.31506 45.64582 5133 ft 207 kts 118°
2026-04-26 10:30 54.30711 45.66504 5144 ft 193 kts 149°
2026-04-26 10:30 54.29554 45.67450 5149 ft 180 kts 177°
2026-04-26 10:30 54.28355 45.67348 5147 ft 170 kts 202°
2026-04-26 10:31 54.27357 45.66334 5151 ft 166 kts 226°
2026-04-26 10:31 54.26697 45.64732 5127 ft 166 kts 240°
2026-04-26 10:31 54.26150 45.63008 5088 ft 163 kts 242°
2026-04-26 10:31 54.25635 45.61334 5090 ft 159 kts 242°
2026-04-26 10:32 54.25118 45.59651 5075 ft 160 kts 242°
2026-04-26 10:32 54.24620 45.57953 5056 ft 161 kts 247°
2026-04-26 10:32 54.24548 45.56043 5002 ft 167 kts 275°
2026-04-26 10:32 54.25084 45.54239 4951 ft 175 kts 297°
2026-04-26 10:33 54.25759 45.52505 4869 ft 174 kts 296°
2026-04-26 10:33 54.26422 45.50771 4804 ft 174 kts 296°
2026-04-26 10:33 54.27083 45.49037 4722 ft 174 kts 296°
2026-04-26 10:33 54.27744 45.47306 4638 ft 174 kts 296°
2026-04-26 10:34 54.28405 45.45572 4558 ft 174 kts 296°
2026-04-26 10:34 54.29059 45.43862 4471 ft 174 kts 296°
2026-04-26 10:34 54.29465 45.41992 4379 ft 166 kts 269°
2026-04-26 10:34 54.29193 45.40137 4255 ft 160 kts 239°
2026-04-26 10:35 54.28389 45.38872 4118 ft 159 kts 216°
2026-04-26 10:35 54.27463 45.37843 3944 ft 159 kts 215°
2026-04-26 10:35 54.26533 45.36807 3755 ft 159 kts 214°
2026-04-26 10:35 54.25605 45.35775 3555 ft 159 kts 214°
2026-04-26 10:36 54.24683 45.34749 3328 ft 158 kts 213°
2026-04-26 10:36 54.23760 45.33722 3117 ft 158 kts 212°
2026-04-26 10:36 54.22840 45.32700 2906 ft 158 kts 212°
2026-04-26 10:36 54.21948 45.31708 2677 ft 143 kts 210°
2026-04-26 10:37 54.21173 45.30844 2499 ft 126 kts 211°
2026-04-26 10:37 54.20460 45.30054 2337 ft 120 kts 211°
2026-04-26 10:37 54.19778 45.29299 2187 ft 116 kts 210°
2026-04-26 10:37 54.19103 45.28551 2028 ft 115 kts 210°
2026-04-26 10:38 54.18434 45.27810 1865 ft 115 kts 211°
2026-04-26 10:38 54.17763 45.27067 1711 ft 115 kts 211°
2026-04-26 10:38 54.17091 45.26322 1548 ft 115 kts 209°
2026-04-26 10:38 54.16421 45.25582 1381 ft 115 kts 208°
2026-04-26 10:39 54.15757 45.24846 1224 ft 113 kts 208°
2026-04-26 10:39 54.15098 45.24116 1064 ft 112 kts 207°
2026-04-26 10:39 54.14453 45.23403 914 ft 113 kts 206°
2026-04-26 10:39 54.13763 45.22642 757 ft 119 kts 210°
2026-04-26 10:40 54.13123 45.21938 664 ft 73 kts 214°
2026-04-26 10:40 54.12822 45.21600 673 ft 46 kts 212°
2026-04-26 10:40 54.12575 45.21328 684 ft 39 kts 214°
2026-04-26 10:40 54.12361 45.21083 689 ft 35 kts 213°
2026-04-26 10:41 54.12203 45.20902 693 ft 6 kts 199°
2026-04-26 10:41 54.12200 45.20911 693 ft 0 kts 126°
2026-04-26 10:41 54.12204 45.20918 693 ft 1 kts 62°
2026-04-26 10:41 54.12268 45.20984 692 ft 20 kts 33°
2026-04-26 10:42 54.12391 45.21124 688 ft 22 kts 34°
2026-04-26 10:42 54.12477 45.21219 685 ft 23 kts 33°
2026-04-26 10:42 54.12614 45.21373 683 ft 25 kts 33°